Tracking 19794 objects as of 22-Jul-2019
HD Live streaming from Space Station
objects crossing your sky now

THORAD AGENA D DEB

Track THORAD AGENA D DEB now!
10-day predictions


NORAD ID: 4971
Int'l Code: 1970-025GR
Perigee: 1,069.0 km
Apogee: 1,599.8 km
Inclination: 99.9 °
Period: 112.2 minutes
Semi major axis: 7705 km
RCS: 0.0605 m2 (small)
Launch date: April 8, 1970
Source: United States (US)
Launch site: AIR FORCE WESTERN TEST RANGE (AFWTR)

Note: This is SATELLITE DEBRIS
aabbcc
Your satellite tracking list
Your tracking list is empty




NASA's NSSDC Master Catalog

Two Line Element Set (TLE):
1  4971U 70025GR  19202.08951883  .00000059  00000-0  31849-3 0  9993
2  4971  99.8622  17.1177 0344489 335.5729 146.6413 12.83540663304302
Source of the keplerian elements: AFSPC